FDB64X OBBI-OMDB

Flight info

Callsign FDB64X
Flight time 0h 55m
Altitude 25000
Route BHR DCT SODAK P559 VUTEB
Aircraft B738/M-SDE2E3FGHIRWXY/LB1

Departure

Time 2026-05-04 08:10
Airport Bahrain International Airport (OBBI)

Arrival

Time 2026-05-04 09:05
Airport Dubai International Airport (OMDB)
Time Latitude Longitude Altitude Speed Heading
2026-05-04 07:12 26.26757 50.63144 18 ft 0 kts 212°
2026-05-04 07:59 26.26758 50.63145 18 ft 2 kts 212°
2026-05-04 07:59 26.26772 50.63154 19 ft 2 kts 212°
2026-05-04 07:59 26.26785 50.63164 19 ft 2 kts 212°
2026-05-04 07:59 26.26799 50.63174 20 ft 2 kts 208°
2026-05-04 08:00 26.26815 50.63180 20 ft 2 kts 159°
2026-05-04 08:00 26.26823 50.63174 19 ft 1 kts 121°
2026-05-04 08:00 26.26824 50.63172 19 ft 0 kts 121°
2026-05-04 08:05 26.26823 50.63190 18 ft 6 kts 90°
2026-05-04 08:05 26.26814 50.63264 18 ft 11 kts 120°
2026-05-04 08:05 26.26801 50.63365 17 ft 16 kts 60°
2026-05-04 08:05 26.26815 50.63473 13 ft 16 kts 121°
2026-05-04 08:06 26.26758 50.63573 15 ft 15 kts 123°
2026-05-04 08:06 26.26698 50.63677 17 ft 17 kts 123°
2026-05-04 08:06 26.26634 50.63785 18 ft 16 kts 123°
2026-05-04 08:06 26.26574 50.63890 17 ft 16 kts 122°
2026-05-04 08:08 26.26068 50.64762 15 ft 22 kts 123°
2026-05-04 08:08 26.26038 50.64916 19 ft 21 kts 76°
2026-05-04 08:10 26.29301 50.61402 2234 ft 172 kts 348°
2026-05-04 08:11 26.30582 50.61098 2550 ft 203 kts 348°
2026-05-04 08:11 26.33647 50.60347 3149 ft 247 kts 348°
2026-05-04 08:11 26.35362 50.59919 3801 ft 255 kts 348°
2026-05-04 08:12 26.37110 50.59838 4682 ft 254 kts 15°
2026-05-04 08:12 26.38611 50.60881 5443 ft 264 kts 46°
2026-05-04 08:12 26.39724 50.62555 6163 ft 272 kts 51°
2026-05-04 08:12 26.40830 50.64257 6849 ft 277 kts 50°
2026-05-04 08:13 26.42014 50.65978 7555 ft 282 kts 48°
2026-05-04 08:13 26.43239 50.67659 8255 ft 287 kts 47°
2026-05-04 08:13 26.44544 50.69368 8965 ft 292 kts 46°
2026-05-04 08:13 26.45896 50.71083 9685 ft 297 kts 45°
2026-05-04 08:14 26.47294 50.72816 10311 ft 305 kts 45°
2026-05-04 08:14 26.48781 50.74629 10504 ft 329 kts 44°
2026-05-04 08:14 26.50328 50.76501 11318 ft 324 kts 44°
2026-05-04 08:16 26.61435 50.89808 16088 ft 350 kts 44°
2026-05-04 08:16 26.63109 50.91812 16703 ft 354 kts 44°
2026-05-04 08:16 26.64803 50.93840 17313 ft 359 kts 44°
2026-05-04 08:17 26.66523 50.95901 17924 ft 364 kts 44°
2026-05-04 08:17 26.68256 50.97979 18465 ft 368 kts 44°
2026-05-04 08:17 26.70012 51.00085 19007 ft 372 kts 45°
2026-05-04 08:17 26.71786 51.02214 19550 ft 376 kts 45°
2026-05-04 08:19 26.73866 51.21117 23234 ft 398 kts 113°
2026-05-04 08:19 26.72888 51.24030 23691 ft 402 kts 113°
2026-05-04 08:20 26.71915 51.26976 24088 ft 406 kts 113°
2026-05-04 08:20 26.70944 51.29957 24466 ft 411 kts 112°
2026-05-04 08:20 26.69972 51.32974 24795 ft 413 kts 112°
2026-05-04 08:20 26.68992 51.36024 24835 ft 422 kts 112°
2026-05-04 08:21 26.67987 51.39152 24852 ft 433 kts 112°
2026-05-04 08:21 26.67655 51.40183 24853 ft 437 kts 112°
2026-05-04 08:21 26.66983 51.42270 24854 ft 444 kts 112°
2026-05-04 08:21 26.65923 51.45557 24855 ft 454 kts 112°
2026-05-04 08:22 26.64846 51.48906 24849 ft 462 kts 112°
2026-05-04 08:22 26.63756 51.52300 24842 ft 464 kts 112°
2026-05-04 08:24 26.56187 51.75761 24833 ft 456 kts 112°
2026-05-04 08:24 26.55107 51.79094 24831 ft 457 kts 112°
2026-05-04 08:24 26.54034 51.82433 24831 ft 457 kts 112°
2026-05-04 08:24 26.52957 51.85777 24830 ft 457 kts 112°
2026-05-04 08:25 26.51874 51.89118 24831 ft 458 kts 112°
2026-05-04 08:25 26.50770 51.92449 24829 ft 458 kts 112°
2026-05-04 08:25 26.49655 51.95783 24829 ft 458 kts 112°
2026-05-04 08:25 26.48539 51.99115 24828 ft 459 kts 112°
2026-05-04 08:26 26.47423 52.02450 24829 ft 459 kts 112°
2026-05-04 08:27 26.39616 52.25767 24821 ft 458 kts 112°
2026-05-04 08:28 26.38499 52.29089 24822 ft 457 kts 112°
2026-05-04 08:28 26.37381 52.32414 24819 ft 457 kts 112°
2026-05-04 08:28 26.36264 52.35733 24819 ft 457 kts 112°
2026-05-04 08:28 26.35144 52.39048 24818 ft 457 kts 113°
2026-05-04 08:29 26.33950 52.42325 24819 ft 456 kts 115°
2026-05-04 08:29 26.32694 52.45573 24818 ft 456 kts 116°
2026-05-04 08:29 26.31422 52.48811 24820 ft 456 kts 116°
2026-05-04 08:31 26.22680 52.71496 24814 ft 456 kts 115°
2026-05-04 08:33 26.13947 52.94237 24807 ft 456 kts 115°
2026-05-04 08:33 26.12697 52.97482 24806 ft 456 kts 115°
2026-05-04 08:35 26.04253 53.20160 24802 ft 456 kts 114°
2026-05-04 08:35 26.03057 53.23425 24800 ft 456 kts 114°
2026-05-04 08:35 26.01857 53.26691 24801 ft 456 kts 114°
2026-05-04 08:35 26.00655 53.29954 24797 ft 456 kts 114°
2026-05-04 08:37 25.93429 53.49517 24795 ft 456 kts 114°
2026-05-04 08:37 25.92260 53.52791 24794 ft 456 kts 112°
2026-05-04 08:37 25.91132 53.56085 24792 ft 456 kts 112°
2026-05-04 08:38 25.90017 53.59381 24796 ft 456 kts 112°
2026-05-04 08:38 25.88904 53.62663 24781 ft 448 kts 112°
2026-05-04 08:38 25.87817 53.65843 24775 ft 435 kts 112°
2026-05-04 08:40 25.80377 53.87239 23132 ft 416 kts 112°
2026-05-04 08:40 25.79335 53.90221 22662 ft 413 kts 112°
2026-05-04 08:40 25.78306 53.93167 22339 ft 406 kts 112°
2026-05-04 08:41 25.77291 53.96070 22057 ft 401 kts 112°
2026-05-04 08:41 25.76286 53.98940 21671 ft 397 kts 112°
2026-05-04 08:41 25.75295 54.01785 21251 ft 394 kts 111°
2026-05-04 08:41 25.74379 54.04645 20826 ft 392 kts 109°
2026-05-04 08:42 25.73790 54.06575 20548 ft 391 kts 109°
2026-05-04 08:42 25.72932 54.09426 20127 ft 389 kts 108°
2026-05-04 08:42 25.72089 54.12224 19718 ft 387 kts 108°
2026-05-04 08:42 25.71230 54.15048 19306 ft 385 kts 108°
2026-05-04 08:43 25.70370 54.17854 18867 ft 385 kts 108°
2026-05-04 08:43 25.69494 54.20696 18441 ft 383 kts 108°
2026-05-04 08:43 25.68631 54.23488 18004 ft 383 kts 108°
2026-05-04 08:43 25.67769 54.26275 17548 ft 381 kts 108°
2026-05-04 08:44 25.67277 54.27864 17292 ft 380 kts 108°
2026-05-04 08:44 25.66461 54.30498 16884 ft 378 kts 108°
2026-05-04 08:46 25.60659 54.49393 14035 ft 364 kts 107°
2026-05-04 08:46 25.59851 54.52027 13752 ft 358 kts 107°
2026-05-04 08:46 25.59050 54.54633 13362 ft 356 kts 107°
2026-05-04 08:46 25.58301 54.57234 12950 ft 353 kts 101°
2026-05-04 08:47 25.57997 54.59909 12561 ft 348 kts 88°
2026-05-04 08:47 25.58199 54.62554 12185 ft 343 kts 79°
2026-05-04 08:47 25.58545 54.65162 11794 ft 341 kts 78°
2026-05-04 08:47 25.58904 54.67752 11403 ft 340 kts 78°
2026-05-04 08:48 25.59254 54.70333 11017 ft 338 kts 79°
2026-05-04 08:48 25.59592 54.72898 10765 ft 332 kts 79°
2026-05-04 08:48 25.59912 54.75397 10601 ft 324 kts 79°
2026-05-04 08:48 25.60222 54.77837 10459 ft 316 kts 79°
2026-05-04 08:49 25.60522 54.80215 10327 ft 307 kts 79°
2026-05-04 08:50 25.58573 54.93426 9993 ft 318 kts 112°
2026-05-04 08:50 25.57668 54.95668 9986 ft 318 kts 112°
2026-05-04 08:51 25.56780 54.97898 9972 ft 315 kts 112°
2026-05-04 08:51 25.55906 55.00110 9969 ft 312 kts 112°
2026-05-04 08:51 25.55040 55.02305 9968 ft 310 kts 112°
2026-05-04 08:51 25.54128 55.04466 9973 ft 310 kts 116°
2026-05-04 08:52 25.53068 55.06549 9982 ft 310 kts 119°
2026-05-04 08:52 25.51967 55.08610 9980 ft 312 kts 119°
2026-05-04 08:52 25.50862 55.10678 9965 ft 311 kts 119°
2026-05-04 08:52 25.49773 55.12742 9791 ft 310 kts 118°
2026-05-04 08:53 25.48694 55.14808 9431 ft 311 kts 118°
2026-05-04 08:54 25.39650 55.27760 8241 ft 308 kts 131°
2026-05-04 08:55 25.38681 55.28940 8181 ft 307 kts 131°
2026-05-04 08:55 25.37453 55.30443 8088 ft 307 kts 131°
2026-05-04 08:55 25.36020 55.32184 8015 ft 305 kts 134°
2026-05-04 08:55 25.34321 55.33553 7962 ft 300 kts 152°
2026-05-04 08:57 25.22093 55.40598 6424 ft 275 kts 153°
2026-05-04 09:01 25.14297 55.53312 1982 ft 184 kts 342°
2026-05-04 09:01 25.15484 55.52813 1979 ft 184 kts 332°
2026-05-04 09:01 25.16474 55.52030 1980 ft 173 kts 308°
2026-05-04 09:01 25.17168 55.51010 1987 ft 161 kts 303°
2026-05-04 09:02 25.17781 55.50000 2029 ft 158 kts 301°
2026-05-04 09:02 25.18366 55.48968 1912 ft 160 kts 299°
2026-05-04 09:02 25.18951 55.47922 1748 ft 163 kts 300°
2026-05-04 09:02 25.19541 55.46855 1533 ft 161 kts 298°
2026-05-04 09:03 25.20097 55.45827 1340 ft 151 kts 299°
2026-05-04 09:03 25.20639 55.44841 1145 ft 152 kts 300°
2026-05-04 09:03 25.21183 55.43862 940 ft 149 kts 299°
2026-05-04 09:03 25.21717 55.42896 787 ft 146 kts 299°
2026-05-04 09:04 25.22238 55.41941 581 ft 146 kts 298°
2026-05-04 09:04 25.22759 55.40994 390 ft 144 kts 299°
2026-05-04 09:04 25.23278 55.40064 248 ft 143 kts 300°
2026-05-04 09:04 25.23802 55.39121 56 ft 142 kts 298°
2026-05-04 09:05 25.24256 55.38270 32 ft 115 kts 299°
2026-05-04 09:05 25.24601 55.37660 27 ft 72 kts 302°
2026-05-04 09:05 25.24778 55.37274 29 ft 50 kts 281°
2026-05-04 09:05 25.24796 55.36972 25 ft 26 kts 284°
2026-05-04 09:06 25.24862 55.36794 22 ft 24 kts 284°
2026-05-04 09:07 25.25377 55.35805 21 ft 19 kts 302°
2026-05-04 09:08 25.25446 55.35682 22 ft 18 kts 302°
2026-05-04 09:08 25.25513 55.35564 20 ft 18 kts 302°
2026-05-04 09:08 25.25578 55.35449 20 ft 17 kts 303°
2026-05-04 09:08 25.25609 55.35370 20 ft 5 kts 257°
2026-05-04 09:09 25.25583 55.35348 20 ft 5 kts 194°
2026-05-04 09:09 25.25535 55.35329 20 ft 9 kts 208°
2026-05-04 09:09 25.25470 55.35286 20 ft 12 kts 210°
2026-05-04 09:09 25.25447 55.35270 20 ft 0 kts 211°